TimeCST,TemperatureF,Dew PointF,Humidity,Sea Level PressureIn,VisibilityMPH,Wind Direction,Wind SpeedMPH,Gust SpeedMPH,PrecipitationIn,Events,Conditions,WindDirDegrees,DateUTC
12:53 AM,34.0,12.0,40,29.91,10.0,NW,11.5,-,N/A,,Clear,320,2014-01-20 06:53:00
1:53 AM,33.1,12.0,42,29.89,10.0,NW,11.5,-,N/A,,Clear,320,2014-01-20 07:53:00
2:53 AM,34.0,10.0,37,29.89,10.0,NW,9.2,-,N/A,,Clear,320,2014-01-20 08:53:00
3:53 AM,32.0,10.0,40,29.90,10.0,WNW,11.5,-,N/A,,Clear,300,2014-01-20 09:53:00
4:53 AM,32.0,10.9,42,29.90,10.0,NW,12.7,-,N/A,,Clear,310,2014-01-20 10:53:00
5:53 AM,28.9,10.9,47,29.94,10.0,WNW,10.4,-,N/A,,Clear,300,2014-01-20 11:53:00
6:53 AM,30.0,10.9,45,29.99,10.0,NW,11.5,-,N/A,,Clear,310,2014-01-20 12:53:00
7:53 AM,28.0,10.9,49,30.05,10.0,NNW,12.7,-,N/A,,Clear,330,2014-01-20 13:53:00
8:53 AM,39.9,10.0,29,30.05,10.0,North,13.8,-,N/A,,Clear,350,2014-01-20 14:53:00
9:53 AM,48.9,8.1,19,30.08,10.0,North,23.0,29.9,N/A,,Clear,360,2014-01-20 15:53:00
10:53 AM,52.0,10.9,19,30.13,10.0,North,29.9,34.5,N/A,,Clear,10,2014-01-20 16:53:00
11:53 AM,55.0,12.0,18,30.14,10.0,NNE,31.1,38.0,N/A,,Clear,20,2014-01-20 17:53:00
12:53 PM,55.9,14.0,19,30.15,10.0,North,32.2,42.6,N/A,,Clear,10,2014-01-20 18:53:00
1:53 PM,55.9,15.1,20,30.16,10.0,North,26.5,38.0,N/A,,Clear,10,2014-01-20 19:53:00
2:53 PM,53.1,15.1,22,30.19,10.0,NNE,24.2,35.7,N/A,,Clear,20,2014-01-20 20:53:00
3:53 PM,53.1,14.0,21,30.22,10.0,NNE,23.0,28.8,N/A,,Clear,20,2014-01-20 21:53:00
4:53 PM,52.0,14.0,22,30.25,10.0,NNE,20.7,31.1,N/A,,Clear,20,2014-01-20 22:53:00
5:53 PM,48.9,12.9,24,30.30,10.0,NNE,15.0,-,N/A,,Clear,20,2014-01-20 23:53:00
6:53 PM,42.1,14.0,32,30.35,10.0,North,10.4,-,N/A,,Clear,10,2014-01-21 00:53:00
7:53 PM,39.0,15.1,38,30.38,10.0,North,11.5,-,N/A,,Clear,10,2014-01-21 01:53:00
8:53 PM,37.0,15.1,41,30.38,10.0,North,8.1,-,N/A,,Clear,10,2014-01-21 02:53:00
9:53 PM,30.0,14.0,51,30.40,10.0,North,6.9,-,N/A,,Clear,350,2014-01-21 03:53:00
10:53 PM,28.0,12.9,53,30.41,10.0,NW,8.1,-,N/A,,Clear,310,2014-01-21 04:53:00
11:53 PM,28.0,14.0,56,30.43,10.0,West,8.1,-,N/A,,Clear,280,2014-01-21 05:53:00